SP3VKM-10 Weather Reports


time (UTC)temp
C
wind
direction
speed
KPH
gust
KPH
rain 1hr
cm
rain 24hr
cm
rain mn
cm
humidity
%
barometer
mb
20260507021111 18 0.0 0.0 0.00 0.00 0.00 99 1010.1
20260507013110 19 0.0 0.0 0.00 0.00 0.00 99 1009.8
20260507011109 19 0.0 0.0 0.00 0.00 0.00 99 1009.6
20260507003110 20 0.0 0.0 0.00 0.00 0.00 99 1009.6
20260507001111 20 0.0 0.0 0.00 0.00 0.00 99 1009.6
20260506235110 20 0.0 0.0 0.00 0.00 0.00 99 1009.5
20260506233111 20 0.0 0.0 0.00 0.00 0.00 99 1009.4
20260506231110 20 0.0 0.0 0.00 0.00 0.00 99 1009.3
20260506225110 20 0.0 0.0 0.00 0.00 0.00 99 1009.3
20260506215110 19 0.0 0.0 0.00 0.00 0.00 99 1009.0
20260506213110 19 0.0 0.0 0.00 0.00 0.00 99 1008.8
20260506211110 19 0.0 0.0 0.00 0.00 0.00 99 1008.6
20260506205111 19 0.0 0.0 0.00 0.00 0.00 99 1008.6
20260506203111 20 0.0 0.0 0.00 0.00 0.00 99 1008.7
20260506201111 19 0.0 0.0 0.00 0.00 0.00 99 1008.8
20260506193110 20 0.0 0.0 0.00 0.00 0.00 99 1008.5
20260506191110 20 0.0 0.0 0.00 0.00 0.00 99 1008.4
20260506185111 20 0.0 0.0 0.00 0.00 0.00 99 1008.2
20260506183110 20 0.0 0.0 0.00 0.00 0.00 99 1008.0
20260506181110 20 0.0 0.0 0.00 0.00 0.00 99 1007.7
20260506175110 20 0.0 0.0 0.00 0.00 0.00 99 1007.6
20260506173110 20 0.0 0.0 0.00 0.00 0.00 99 1007.5
20260506171110 20 0.0 0.0 0.00 0.00 0.00 99 1007.6
20260506163111 21 0.0 0.0 0.00 0.00 0.00 99 1007.4
20260506161111 21 0.0 0.0 0.00 0.00 0.00 99 1007.5
20260506155110 21 0.0 0.0 0.00 0.00 0.00 99 1007.3
20260506153110 22 0.0 0.0 0.00 0.00 0.00 99 1007.1
20260506151110 23 0.0 0.0 0.00 0.00 0.00 82 1006.9
20260506145111 23 0.0 0.0 0.00 0.00 0.00 1 1006.8
20260506143109 24 0.0 0.0 0.00 0.00 0.00 3 1006.4
20260506141110 23 0.0 0.0 0.00 0.00 0.00 99 1006.3
20260506135110 23 0.0 0.0 0.00 0.00 0.00 58 1006.3
20260506133112 24 0.0 0.0 0.00 0.00 0.00 7 1006.2
20260506131110 23 0.0 0.0 0.00 0.00 0.00 3 1006.1
20260506125111 24 0.0 0.0 0.00 0.00 0.00 26 1006.0
20260506123109 25 0.0 0.0 0.00 0.00 0.00 31 1006.0
20260506121111 24 0.0 0.0 0.00 0.00 0.00 18 1006.0
20260506115110 23 0.0 0.0 0.00 0.00 0.00 1 1005.8
20260506113110 23 0.0 0.0 0.00 0.00 0.00 3 1006.0
20260506103111 23 0.0 0.0 0.00 0.00 0.00 21 1006.0
20260506101110 23 0.0 0.0 0.00 0.00 0.00 10 1006.0
20260506093110 23 0.0 0.0 0.00 0.00 0.00 7 1005.9
20260506091110 23 0.0 0.0 0.00 0.00 0.00 4 1006.0
20260506085111 22 0.0 0.0 0.00 0.00 0.00 1 1005.9
20260506083110 22 0.0 0.0 0.00 0.00 0.00 41 1006.0
20260506081111 21 0.0 0.0 0.00 0.00 0.00 99 1005.9
20260506073110 20 0.0 0.0 0.00 0.00 0.00 99 1005.8
20260506071110 20 0.0 0.0 0.00 0.00 0.00 99 1006.1
20260506061111 20 0.0 0.0 0.00 0.00 0.00 99 1005.6
20260506051111 20 0.0 0.0 0.00 0.00 0.00 99 1005.6
20260506043111 20 0.0 0.0 0.00 0.00 0.00 99 1005.6
20260506041110 20 0.0 0.0 0.00 0.00 0.00 99 1006.0
20260506035111 20 0.0 0.0 0.00 0.00 0.00 99 1006.1
20260506033111 20 0.0 0.0 0.00 0.00 0.00 99 1006.4
20260506031110 20 0.0 0.0 0.00 0.00 0.00 99 1006.5
20260506025111 20 0.0 0.0 0.00 0.00 0.00 99 1006.9
20260506023110 20 0.0 0.0 0.00 0.00 0.00 99 1007.0